Temperature
15 15 16 16 13 11 13 14 15 17 17 17 18 17 16 16 16 16 15 15 15 15 15 15 16 16 16 16 16 16 16 16 16 16 16 16 16 15 15 15 15 15 15 15 15 15 15 15 15
15 15 16 15 11 12 13 14 15 16 17 18 17 17 16 15 15 15 15 15 15 15 15 15 15 15 16 16 16 16 16 16 16 16 16 16 15 15 15 15 15 15 15 15 15 15 15 15 15
15 15 15 11 11 12 14 15 15 16 17 17 17 16 16 15 14 15 15 15 15 15 15 15 15 15 15 15 15 15 15 15 15 15 15 15 15 15 15 15 15 15 15 15 15 15 15 15 15
15 15 14 11 12 13 14 15 15 15 17 17 16 15 15 15 15 15 15 15 15 15 15 15 15 15 15 15 15 15 15 15 15 15 15 15 15 15 15 15 15 15 15 15 15 15 15 15 15
15 14 11 11 12 13 13 15 15 15 15 16 16 14 14 14 14 15 14 14 14 14 14 14 14 14 14 15 15 15 15 15 15 15 15 15 15 15 15 15 15 15 15 15 15 15 15 15 15
14 11 10 11 12 13 14 16 15 14 15 15 15 14 13 14 14 14 14 14 14 14 14 14 14 14 14 14 14 14 15 15 15 14 14 14 14 14 14 14 15 15 15 14 14 14 14 14 14
13 10 11 12 12 13 14 15 15 14 14 15 15 13 13 13 14 14 14 14 14 14 14 14 13 13 14 14 14 14 14 14 14 14 14 14 14 14 14 14 14 14 14 14 14 14 14 14 14
13 10 11 11 12 13 14 15 15 15 14 15 15 13 13 13 13 13 13 13 13 13 13 13 13 13 13 13 13 13 14 14 14 14 14 14 14 14 14 14 14 14 14 14 14 14 14 14 13
13 9 10 11 12 13 14 14 14 15 15 14 14 14 14 13 13 13 13 13 12 13 13 13 13 13 13 13 13 13 13 13 13 13 13 13 13 13 13 13 14 14 14 14 14 14 13 13 13
12 9 11 12 13 13 13 13 14 14 13 13 14 14 14 13 13 13 13 12 12 12 12 12 13 12 12 12 13 13 13 13 13 13 13 13 13 13 13 13 13 13 13 13 13 13 13 13 13
11 9 11 12 13 13 13 13 13 13 12 13 13 13 13 13 12 12 12 12 12 12 12 12 12 12 12 12 12 12 12 12 12 13 13 13 13 13 13 13 13 13 13 13 13 13 13 13 13
10 11 12 12 13 13 12 12 12 13 13 14 14 13 13 12 12 12 12 12 12 11 11 12 12 11 11 12 12 12 12 12 12 12 12 12 12 12 12 12 12 12 12 12 13 13 13 12 12
10 11 12 12 13 13 12 12 12 12 13 13 13 13 13 12 12 12 12 12 11 11 11 11 11 11 11 11 11 11 12 12 12 12 12 12 12 12 12 12 12 12 12 12 12 12 12 12 12
11 11 11 12 12 12 11 11 11 12 13 13 12 12 12 12 12 12 11 11 11 11 11 11 11 11 11 11 11 11 11 11 11 11 11 11 11 11 11 11 11 11 12 12 12 12 12 12 12
11 10 10 11 11 11 11 10 10 12 12 12 12 12 12 12 12 11 11 11 11 11 11 11 11 11 10 11 11 11 11 11 11 11 11 11 11 11 11 11 11 11 11 11 11 11 11 11 11
10 9 9 10 10 11 10 9 10 12 12 11 12 12 12 12 11 11 11 11 11 10 10 10 10 10 10 10 10 10 10 10 10 10 10 10 10 11 11 11 11 11 11 11 11 11 11 11 11
8 8 8 10 10 10 10 9 10 12 11 11 11 11 11 11 11 11 11 11 10 10 10 10 10 10 10 10 10 10 10 10 10 10 10 10 10 10 10 10 10 10 10 10 11 11 11 10 10
8 8 8 9 10 9 9 9 9 11 10 10 10 11 11 11 11 11 11 10 10 10 10 9 9 9 10 9 9 9 9 9 9 10 9 9 9 9 10 10 10 10 10 10 10 10 10 10 10
9 8 8 9 10 9 9 9 9 10 10 9 10 10 10 10 11 11 10 10 10 10 9 9 9 9 9 9 9 9 9 9 9 9 9 9 9 9 9 9 9 9 10 10 10 10 9 9 9
8 8 8 9 9 9 8 8 9 9 9 10 9 10 10 10 10 10 10 10 10 9 9 9 9 9 9 9 9 9 9 9 9 9 9 9 9 9 9 9 9 9 9 9 9 9 9 9 8
8 8 8 8 9 9 8 8 8 9 9 10 10 10 10 10 10 10 10 9 9 9 9 9 8 8 9 9 8 8 8 8 8 8 8 8 8 8 8 9 9 9 9 9 9 9 9 8 8
8 9 9 8 8 7 8 7 7 8 8 8 8 9 9 9 9 9 9 9 9 9 8 8 8 8 8 8 8 8 8 8 8 8 8 8 8 8 8 8 8 8 8 8 8 8 8 8 8
8 9 8 8 7 6 7 6 7 7 7 8 8 8 9 9 9 9 9 9 9 8 8 8 8 8 8 8 8 8 8 8 8 8 8 8 8 8 8 8 8 8 8 8 8 8 8 7 7
8 8 7 6 6 6 6 6 6 6 7 8 7 8 9 9 9 9 9 8 8 8 8 8 8 7 7 7 7 7 7 7 7 7 7 7 7 7 7 7 7 7 7 8 8 7 7 7 7
7 6 6 5 5 6 6 6 7 7 7 8 7 8 8 8 8 8 8 8 8 8 8 7 7 7 7 7 7 7 7 7 7 7 7 7 7 7 7 7 7 7 7 7 7 7 7 7 7
6 6 5 6 6 5 6 6 6 7 7 8 8 8 8 8 8 8 8 8 8 8 7 7 7 7 7 7 7 7 7 6 7 7 7 7 7 7 7 6 6 6 6 6 6 6 6 6 6
6 5 6 5 5 5 5 6 6 7 6 6 6 7 7 7 8 7 7 7 7 7 7 7 7 7 7 7 6 6 6 6 6 6 6 6 6 6 6 6 6 6 6 6 6 6 6 6 6
6 6 5 5 5 6 6 6 6 6 6 6 5 6 6 7 7 7 7 7 7 7 7 7 7 7 6 6 6 6 6 6 6 6 6 6 6 6 6 6 6 5 5 5 5 5 5 5 5
5 5 5 4 5 5 5 6 6 6 6 5 5 5 6 6 6 6 6 6 6 6 6 6 6 6 6 6 6 6 6 5 5 5 5 5 5 5 5 5 5 5 5 5 5 5 5 5 5
5 5 5 5 4 4 4 5 6 5 5 5 5 5 5 6 6 6 6 6 6 6 6 6 5 5 5 5 5 5 5 5 5 5 5 5 5 5 5 5 5 5 5 4 4 4 4 4 4
Wind_Speed
11 9 3 4 5 4 3 5 3 1 0 1 1 4 5 4 3 4 2 4 8 8 9 11 12 11 10 10 10 10 10 10 9 10 10 10 10 10 9 9 9 9 9 9 9 10 9 9 9
6 3 5 5 5 2 5 5 4 3 3 1 2 4 4 3 3 6 3 5 9 9 9 10 11 11 10 10 9 9 10 10 10 9 9 9 10 9 9 9 8 8 9 9 10 9 9 9 9
5 2 4 4 4 6 6 4 5 3 1 1 2 3 3 3 3 3 3 6 8 8 8 9 12 11 11 10 9 9 9 10 9 9 9 9 9 9 8 8 8 9 9 9 9 9 9 8 7
3 5 4 3 4 5 5 4 4 2 1 2 3 3 2 1 3 4 6 8 9 7 8 9 11 10 11 10 9 9 9 9 9 9 9 8 8 8 8 8 9 9 9 9 9 9 8 8 7
4 4 3 1 5 5 4 4 3 3 2 0 3 3 1 2 3 7 7 8 9 6 8 9 10 9 10 10 9 9 8 8 8 8 8 8 8 8 8 8 9 9 9 8 8 8 8 7 7
4 4 3 4 5 4 3 3 3 1 1 0 3 2 1 0 4 6 6 6 7 7 7 8 9 9 9 9 9 8 7 7 8 8 8 8 7 7 8 8 9 9 8 8 8 7 7 6 6
4 4 4 5 4 4 4 2 3 3 2 3 4 4 2 1 3 5 6 5 5 6 7 6 7 8 8 8 9 8 7 7 7 7 7 7 7 7 7 8 8 9 8 8 7 7 6 5 6
5 4 3 3 4 5 3 1 2 4 3 2 3 6 5 5 4 5 6 5 3 4 5 5 5 6 6 7 9 8 7 6 6 6 7 7 7 7 7 7 8 8 8 7 6 6 5 5 5
4 3 5 5 5 4 1 0 1 1 2 1 1 4 4 7 6 6 5 3 2 3 4 4 4 4 5 5 8 7 6 6 6 6 6 6 6 6 6 7 8 7 7 7 5 4 4 4 5
4 5 7 4 4 3 2 2 2 1 1 1 1 1 4 6 7 6 5 4 3 3 4 4 4 4 5 5 6 6 6 5 5 5 5 5 5 5 5 6 7 7 6 5 4 3 3 4 4
5 7 4 4 4 3 3 3 3 4 5 6 6 5 5 5 6 6 6 6 5 4 4 4 4 5 4 4 5 5 5 5 4 5 5 5 4 4 4 4 4 5 5 4 3 3 4 4 4
4 6 6 4 4 4 4 3 3 6 8 6 7 8 7 7 7 7 7 5 4 3 4 4 5 4 4 4 4 4 4 3 3 4 5 5 3 3 3 3 3 3 3 3 3 3 4 4 6
6 6 5 6 5 5 5 6 5 7 7 4 4 5 7 8 7 6 5 4 4 4 4 4 5 5 4 4 4 4 4 4 4 4 5 5 4 2 3 3 3 3 4 4 3 2 4 4 5
5 5 5 5 6 4 6 7 4 9 5 5 6 7 7 8 7 5 4 5 5 5 4 3 5 5 4 4 4 4 4 4 4 4 5 5 5 3 3 3 3 3 4 4 3 3 3 3 4
2 3 6 6 6 5 3 7 9 10 4 5 7 7 8 7 7 7 7 6 6 6 4 3 4 4 4 4 4 4 4 5 4 4 5 5 5 4 3 3 3 3 4 4 4 4 4 3 3
0 2 5 6 5 5 6 10 9 6 6 6 6 6 7 7 7 7 6 6 6 5 5 4 4 4 4 4 4 3 4 4 4 4 4 5 5 5 4 2 2 3 4 4 3 3 3 3 3
2 4 6 6 5 5 7 9 7 5 7 7 7 6 6 6 6 6 6 6 6 6 6 4 4 5 4 4 3 3 3 3 4 4 4 4 5 5 4 3 3 4 3 2 3 3 3 3 3
7 6 6 7 4 5 8 10 9 5 6 8 7 6 6 6 7 6 5 5 5 5 5 5 4 4 4 3 3 2 2 2 2 3 4 4 4 5 4 3 3 4 3 2 3 4 3 3 3
5 5 7 7 5 5 9 12 11 8 7 7 7 6 6 7 6 4 4 5 5 5 5 5 4 4 4 3 3 3 3 2 2 2 4 4 4 4 4 3 3 3 3 4 4 4 4 3 3
7 8 8 6 3 5 7 11 10 8 9 9 9 8 7 6 4 4 4 5 5 6 6 5 5 4 4 3 3 2 2 2 2 2 2 4 4 4 4 4 4 4 4 4 4 4 3 2 2
10 11 10 7 4 3 3 7 7 5 5 6 7 7 7 7 6 5 5 5 6 6 6 5 5 4 4 4 3 3 2 1 1 1 1 2 4 4 4 3 4 4 4 5 5 5 5 4 1
10 8 8 6 3 5 3 5 7 5 5 6 6 6 6 5 5 5 5 6 6 6 5 5 5 4 4 5 5 5 3 2 2 2 2 1 3 3 3 3 4 4 3 4 5 4 4 5 4
8 4 4 4 4 4 4 5 7 4 6 7 7 7 6 6 6 6 6 6 5 4 5 5 5 4 4 4 5 5 3 2 2 1 2 1 1 2 3 3 3 3 3 4 4 4 4 3 3
3 1 1 2 1 6 8 7 7 6 9 7 6 6 6 6 5 5 5 4 4 3 3 4 5 4 4 4 4 5 5 4 4 2 2 1 1 1 1 2 3 3 3 3 4 4 5 4 3
3 4 0 2 3 7 5 6 8 7 6 8 8 7 5 5 5 5 5 5 5 5 4 5 5 5 4 4 4 4 4 5 5 4 3 3 2 1 2 2 2 2 3 3 3 4 4 4 4
7 8 7 6 6 4 3 7 7 5 3 5 5 5 4 3 3 4 5 6 6 6 5 5 5 5 5 5 5 4 4 3 3 3 4 4 3 2 2 2 3 2 3 3 3 3 3 3 3
6 6 6 3 2 3 5 5 5 1 1 3 4 4 3 3 3 4 4 4 5 5 5 5 5 5 5 5 5 4 4 3 3 2 2 3 2 2 2 2 2 2 2 3 3 2 2 3 3
4 5 4 5 5 6 5 5 5 5 4 4 4 4 3 2 2 3 3 3 3 3 3 3 3 4 4 4 4 4 4 3 3 3 3 2 2 2 3 2 2 2 1 2 2 2 2 3 2
3 3 4 4 4 5 4 6 4 7 6 6 4 4 3 3 2 2 2 3 3 3 3 3 3 3 3 4 4 3 3 3 4 3 3 3 3 3 3 3 3 3 2 2 2 2 3 3 2
5 5 5 4 5 4 4 5 2 2 3 4 3 2 1 1 2 2 2 3 3 3 3 3 3 3 3 3 4 4 3 3 3 3 3 3 3 3 3 3 3 3 2 2 2 2 2 3 3
Wind_Direction
332 336 51 57 59 58 233 243 223 235 247 239 118 105 121 122 143 157 163 133 127 134 138 136 132 126 122 120 118 120 118 115 116 119 118 115 112 112 111 108 111 115 115 114 112 108 106 104 100
333 358 53 63 101 167 252 238 217 218 209 194 62 82 79 78 83 113 126 135 126 127 129 132 132 129 126 123 121 121 121 118 118 119 119 118 115 111 109 108 108 115 116 114 113 109 105 103 98
338 50 81 84 144 190 218 220 205 204 221 155 73 66 104 120 117 141 164 138 121 116 120 127 131 133 130 127 125 124 123 121 120 121 120 121 120 117 115 110 106 112 115 114 112 111 109 106 102
54 48 60 93 215 227 216 223 199 160 349 40 104 70 70 56 153 155 144 129 122 116 121 127 130 132 133 131 127 125 126 125 124 125 127 125 126 125 123 115 109 111 112 113 113 115 113 110 105
66 81 82 239 242 249 240 226 199 176 180 13 91 107 80 353 105 118 127 124 127 125 124 129 134 133 136 136 133 129 129 131 131 131 134 132 129 132 130 122 117 113 114 117 118 119 116 111 105
63 81 128 224 239 251 257 229 184 160 198 235 111 122 181 105 113 124 120 119 127 131 124 130 136 144 139 140 138 135 134 136 138 136 136 137 136 135 137 133 128 121 118 120 122 122 118 110 105
115 123 187 211 234 252 253 228 168 172 198 216 151 135 184 216 162 133 117 107 114 129 126 128 133 144 142 144 141 138 138 136 139 142 140 138 139 137 138 138 136 128 123 120 122 124 119 112 104
133 129 201 224 223 240 255 235 187 168 212 220 139 157 198 207 173 122 104 100 108 131 133 138 135 141 142 148 143 137 136 132 135 138 141 140 138 137 139 141 141 136 131 125 124 122 116 107 103
108 113 214 215 206 232 253 227 309 196 140 107 165 184 192 158 139 113 98 94 118 151 147 146 143 142 144 151 149 140 138 136 135 135 137 138 134 137 139 143 146 143 137 129 129 129 116 105 104
125 187 222 211 191 209 256 241 234 147 190 224 350 21 131 143 144 145 149 165 183 189 179 165 158 153 151 158 149 144 139 135 134 135 134 140 144 147 150 151 154 150 142 137 132 133 114 105 96
172 201 217 229 214 210 242 262 241 181 231 217 196 180 163 162 162 166 175 179 193 205 196 175 168 163 156 153 153 149 146 144 145 144 140 142 143 146 143 139 148 150 146 132 127 112 100 102 99
200 229 214 221 212 211 224 235 250 221 228 216 195 177 172 182 190 188 187 185 186 205 210 182 177 165 161 162 155 153 151 151 158 164 157 147 141 144 145 140 149 149 146 128 116 107 108 107 106
222 246 239 241 233 229 240 243 246 255 241 222 191 180 181 191 199 197 187 184 179 191 195 193 178 170 164 163 162 153 158 162 164 163 165 160 152 167 162 159 155 161 152 140 130 117 118 112 107
225 239 261 255 242 229 232 259 241 256 229 191 187 197 200 199 199 192 187 185 189 195 198 192 184 172 163 160 160 166 162 159 156 163 169 169 161 162 169 166 157 164 161 150 144 135 126 118 113
234 271 288 256 229 222 199 267 238 244 199 194 200 201 205 207 198 196 196 191 190 187 185 198 190 168 163 160 167 162 166 160 157 166 170 168 167 160 163 166 168 175 163 147 133 119 112 111 108
207 241 259 258 207 199 173 249 253 228 189 209 213 212 210 214 205 205 196 190 187 177 177 198 186 164 158 159 167 159 161 157 159 161 164 167 167 161 152 167 180 171 156 140 142 140 118 115 118
224 231 238 261 215 187 193 242 256 231 197 212 215 216 215 216 217 214 204 193 186 178 172 182 168 160 161 160 159 156 152 153 162 161 168 172 172 167 158 167 169 161 148 148 157 144 134 130 123
216 221 234 235 226 191 217 246 260 251 212 217 216 214 214 212 220 208 198 185 173 164 160 165 161 161 154 150 142 150 147 155 160 163 177 181 176 170 158 162 161 154 152 159 151 145 135 137 134
212 222 242 247 233 213 233 251 255 248 227 226 224 216 213 216 216 192 182 168 154 147 149 161 165 164 152 153 157 166 178 189 201 184 180 176 175 169 157 168 160 158 164 167 157 147 140 128 128
238 247 258 277 248 227 249 260 256 241 226 219 215 212 208 208 205 190 174 160 161 160 160 166 171 171 168 172 171 171 174 187 203 174 161 168 170 173 168 164 171 167 162 156 161 149 144 142 140
236 232 238 248 294 281 281 285 259 249 224 218 214 210 202 199 200 190 176 170 165 167 172 176 181 179 169 161 143 119 99 77 98 175 191 184 173 169 163 159 165 165 169 172 175 168 152 166 193
240 229 225 229 236 263 204 266 263 235 235 222 217 206 202 197 187 182 180 180 180 183 179 174 175 177 170 164 160 156 168 183 208 198 193 184 167 163 161 156 162 164 168 172 174 170 160 163 178
229 218 217 225 210 260 232 227 271 228 234 230 219 209 204 199 189 185 187 189 184 181 179 174 165 175 172 171 170 167 175 178 162 158 167 176 158 152 158 162 162 167 172 171 168 168 167 170 179
200 93 35 38 119 251 222 202 265 221 219 217 214 207 205 199 192 189 187 175 170 170 169 167 162 172 175 173 172 170 174 164 155 163 179 196 175 165 155 165 160 167 167 165 170 172 170 174 172
142 127 81 283 233 244 203 201 247 238 217 202 202 201 201 192 188 182 172 170 172 173 175 174 169 176 179 175 178 180 181 177 176 180 182 188 179 179 203 177 168 175 172 168 161 165 167 171 172
196 170 181 208 217 253 214 222 247 258 216 183 177 176 171 169 174 175 178 177 176 175 175 177 179 183 181 179 181 177 174 182 185 179 172 177 183 188 180 164 155 158 164 163 157 164 168 167 168
170 199 191 166 205 231 246 265 291 304 119 144 149 147 157 168 166 170 171 171 175 178 181 182 180 177 176 175 171 171 170 174 171 168 163 164 167 163 146 143 136 131 143 156 155 168 176 171 173
181 165 142 175 197 231 250 239 225 209 198 183 172 171 174 170 155 156 161 164 170 173 170 163 168 172 167 167 174 175 175 175 168 167 164 156 156 150 145 137 138 145 151 145 159 174 181 170 182
179 182 182 183 194 192 229 252 215 189 185 182 186 174 173 173 170 167 160 155 144 132 140 147 150 147 154 165 169 162 166 167 166 170 170 165 155 148 149 152 151 157 161 157 158 176 175 172 187
206 202 178 197 228 206 210 256 298 163 160 151 149 154 162 173 157 150 142 125 123 132 145 152 155 159 167 163 157 161 161 163 162 166 167 160 156 152 150 147 148 151 149 145 159 172 178 175 188
Height
1516 1516 1517 1519 1523 1533 1532 1524 1517 1514 1513 1512 1511 1511 1512 1515 1518 1524 1522 1520 1521 1522 1524 1525 1527 1528 1529 1530 1530 1531 1532 1533 1534 1534 1535 1535 1536 1536 1537 1537 1538 1538 1539 1539 1540 1540 1541 1541 1542
1516 1516 1518 1519 1528 1537 1531 1520 1516 1513 1511 1511 1511 1511 1512 1514 1516 1517 1518 1519 1521 1522 1523 1524 1526 1527 1528 1529 1530 1530 1531 1532 1533 1533 1534 1535 1535 1536 1536 1537 1537 1538 1538 1539 1540 1540 1541 1541 1542
1515 1516 1518 1521 1529 1531 1523 1515 1513 1510 1510 1510 1511 1512 1513 1515 1516 1516 1517 1519 1520 1522 1522 1523 1525 1526 1527 1528 1529 1529 1530 1531 1532 1533 1533 1534 1534 1535 1536 1536 1537 1537 1538 1538 1539 1540 1540 1541 1542
1515 1517 1519 1525 1525 1521 1515 1512 1510 1510 1510 1509 1510 1512 1514 1516 1516 1516 1517 1518 1520 1521 1522 1522 1524 1525 1526 1527 1528 1528 1529 1530 1531 1532 1532 1533 1534 1534 1535 1535 1536 1537 1537 1538 1539 1539 1540 1541 1541
1514 1516 1522 1527 1522 1516 1511 1510 1509 1509 1509 1509 1510 1512 1513 1515 1515 1515 1516 1517 1518 1519 1520 1522 1522 1524 1525 1526 1527 1527 1528 1529 1530 1530 1531 1532 1533 1533 1534 1535 1535 1536 1537 1537 1538 1539 1540 1540 1541
1514 1516 1526 1527 1520 1513 1509 1508 1508 1508 1509 1509 1509 1511 1513 1514 1514 1514 1515 1516 1517 1518 1519 1520 1521 1522 1523 1524 1525 1526 1527 1528 1529 1529 1530 1531 1531 1532 1533 1534 1534 1535 1536 1537 1538 1538 1539 1540 1541
1514 1518 1522 1520 1517 1512 1508 1507 1507 1508 1508 1508 1508 1510 1511 1513 1513 1514 1514 1515 1516 1517 1517 1519 1520 1520 1521 1523 1524 1525 1526 1526 1527 1528 1529 1529 1530 1531 1532 1532 1533 1534 1535 1536 1537 1538 1538 1539 1540
1512 1516 1517 1517 1514 1510 1506 1506 1506 1506 1507 1507 1508 1508 1509 1511 1511 1512 1513 1514 1514 1515 1516 1517 1518 1519 1519 1520 1522 1523 1524 1525 1525 1526 1527 1528 1529 1530 1530 1531 1532 1533 1534 1535 1536 1537 1538 1538 1539
1511 1518 1518 1513 1510 1507 1505 1505 1505 1505 1505 1505 1506 1506 1507 1508 1509 1510 1511 1512 1512 1512 1514 1515 1516 1516 1517 1519 1520 1521 1522 1523 1524 1524 1525 1526 1527 1528 1529 1530 1530 1532 1533 1533 1534 1535 1536 1537 1538
1509 1516 1510 1506 1505 1505 1504 1504 1504 1504 1503 1504 1504 1504 1505 1506 1506 1507 1508 1508 1509 1509 1511 1512 1513 1514 1515 1516 1518 1519 1520 1521 1522 1523 1524 1525 1525 1526 1527 1528 1529 1530 1531 1532 1533 1534 1535 1536 1537
1506 1508 1504 1503 1502 1503 1503 1502 1502 1502 1502 1500 1500 1502 1502 1503 1504 1504 1505 1506 1506 1507 1508 1509 1510 1511 1512 1514 1515 1516 1517 1518 1519 1520 1521 1522 1523 1524 1525 1526 1527 1528 1529 1530 1531 1533 1534 1535 1536
1504 1502 1501 1500 1500 1501 1501 1500 1500 1498 1497 1497 1498 1499 1500 1500 1501 1501 1502 1503 1504 1505 1506 1506 1508 1509 1510 1511 1513 1514 1515 1516 1517 1518 1519 1520 1521 1522 1523 1524 1525 1526 1527 1528 1530 1531 1532 1533 1534
1502 1499 1498 1499 1499 1498 1499 1498 1497 1494 1494 1495 1495 1496 1496 1497 1498 1499 1500 1501 1501 1502 1503 1504 1505 1506 1507 1509 1510 1511 1512 1513 1514 1516 1517 1518 1519 1520 1521 1522 1523 1524 1525 1526 1527 1529 1530 1531 1532
1498 1498 1497 1496 1496 1496 1496 1495 1495 1490 1491 1492 1492 1493 1493 1494 1495 1496 1497 1497 1498 1499 1500 1501 1502 1503 1505 1506 1507 1508 1509 1510 1512 1513 1514 1515 1516 1517 1518 1519 1521 1522 1523 1524 1525 1527 1528 1529 1531
1497 1498 1496 1493 1492 1493 1495 1494 1490 1487 1489 1489 1489 1489 1490 1491 1492 1492 1493 1493 1494 1495 1497 1498 1499 1500 1502 1503 1505 1506 1507 1508 1509 1510 1511 1512 1514 1515 1516 1517 1518 1519 1520 1522 1523 1524 1526 1527 1528
1497 1499 1499 1491 1490 1490 1496 1493 1484 1484 1486 1485 1486 1486 1487 1488 1488 1489 1491 1491 1492 1493 1493 1496 1496 1498 1499 1501 1502 1503 1504 1505 1506 1507 1508 1509 1511 1512 1513 1514 1515 1517 1518 1519 1520 1521 1523 1524 1526
1499 1501 1498 1491 1487 1488 1490 1488 1482 1481 1482 1482 1483 1483 1483 1484 1485 1486 1487 1488 1489 1489 1490 1492 1493 1495 1496 1498 1500 1501 1501 1502 1503 1504 1505 1506 1508 1509 1510 1512 1513 1514 1515 1516 1518 1519 1520 1522 1523
1498 1498 1494 1491 1486 1487 1487 1484 1479 1479 1479 1478 1479 1479 1479 1480 1480 1482 1483 1484 1485 1486 1488 1489 1491 1492 1494 1495 1496 1497 1498 1499 1500 1501 1502 1503 1505 1506 1507 1509 1510 1511 1512 1514 1515 1516 1518 1519 1521
1490 1491 1491 1487 1483 1485 1484 1480 1476 1475 1476 1476 1475 1475 1476 1476 1477 1479 1480 1481 1482 1483 1485 1486 1488 1489 1490 1492 1493 1494 1494 1496 1497 1498 1499 1500 1502 1503 1504 1506 1507 1508 1510 1511 1512 1513 1515 1517 1518
1489 1490 1489 1485 1482 1483 1482 1478 1473 1472 1471 1471 1471 1471 1471 1473 1474 1475 1476 1477 1479 1480 1481 1483 1485 1486 1487 1489 1490 1491 1492 1493 1494 1495 1496 1497 1499 1500 1501 1503 1504 1506 1507 1508 1509 1511 1512 1513 1515
1486 1487 1486 1486 1483 1482 1482 1479 1473 1468 1467 1467 1467 1467 1468 1469 1470 1471 1473 1474 1476 1477 1479 1480 1482 1484 1485 1486 1488 1489 1489 1490 1491 1491 1493 1494 1496 1497 1498 1500 1501 1503 1504 1505 1506 1508 1509 1510 1513
1483 1479 1480 1482 1486 1488 1484 1486 1472 1468 1466 1465 1464 1464 1465 1466 1467 1469 1470 1471 1473 1474 1476 1478 1480 1481 1482 1484 1484 1485 1486 1486 1487 1489 1490 1491 1493 1494 1495 1496 1498 1499 1501 1502 1504 1505 1507 1508 1510
1477 1475 1478 1480 1483 1487 1485 1487 1473 1467 1466 1463 1461 1461 1462 1463 1465 1466 1467 1469 1470 1472 1473 1475 1477 1478 1479 1481 1481 1482 1483 1484 1485 1486 1487 1488 1489 1491 1492 1493 1495 1496 1498 1500 1501 1503 1504 1506 1507
1473 1476 1479 1484 1487 1488 1480 1484 1473 1466 1460 1458 1458 1459 1460 1461 1462 1463 1465 1466 1467 1469 1471 1472 1473 1475 1476 1478 1478 1479 1481 1482 1483 1483 1484 1485 1486 1488 1489 1490 1491 1493 1495 1497 1498 1500 1501 1502 1504
1474 1481 1489 1490 1491 1482 1474 1475 1467 1456 1453 1453 1454 1455 1456 1458 1458 1460 1461 1463 1464 1466 1468 1469 1470 1472 1473 1474 1476 1477 1478 1479 1480 1480 1481 1482 1483 1484 1486 1487 1489 1490 1492 1494 1496 1497 1498 1499 1500
1472 1475 1484 1484 1483 1479 1473 1471 1461 1452 1450 1450 1452 1453 1454 1455 1456 1457 1458 1460 1462 1463 1465 1466 1467 1469 1470 1471 1473 1474 1475 1476 1477 1478 1478 1479 1481 1482 1483 1484 1485 1487 1489 1491 1492 1494 1495 1496 1496
1470 1472 1472 1479 1480 1480 1473 1465 1456 1450 1449 1449 1450 1451 1452 1453 1454 1455 1457 1458 1460 1461 1462 1463 1465 1466 1467 1468 1470 1471 1472 1473 1474 1475 1476 1477 1478 1480 1481 1482 1483 1485 1486 1488 1489 1490 1491 1492 1493
1465 1467 1474 1477 1476 1474 1467 1464 1458 1451 1449 1449 1449 1450 1451 1453 1453 1454 1455 1456 1458 1459 1460 1461 1462 1463 1464 1465 1467 1468 1469 1471 1472 1473 1474 1475 1476 1477 1478 1479 1481 1482 1484 1485 1486 1487 1488 1489 1489
1466 1467 1467 1471 1471 1472 1469 1460 1446 1445 1445 1447 1448 1449 1450 1451 1452 1452 1453 1455 1456 1457 1458 1459 1460 1461 1462 1463 1464 1465 1467 1468 1470 1471 1471 1473 1474 1475 1476 1477 1478 1480 1481 1482 1483 1484 1485 1485 1486
1461 1463 1465 1469 1468 1469 1468 1459 1442 1443 1443 1445 1447 1449 1449 1450 1451 1452 1452 1453 1454 1455 1456 1457 1458 1458 1459 1461 1462 1463 1464 1465 1467 1468 1469 1470 1472 1473 1474 1475 1475 1476 1478 1479 1480 1480 1481 1482 1483